Regional Weather Roundup
Issued by NWS

Home | Current Version | Previous Version | Text Only | Print | Product List | Glossary Off
Versions: 1 2 3 4 5 6 7 8 9 10 11 12 13 14 15 16 17 18 19 20 21 22 23 24 25 26 27 28 29 30 31 32 33 34 35 36 37 38 39 40 41 42 43 44 45 46 47 48 49 50

000
ASUS43 KFSD 280810
RWRSD

WEATHER ROUNDUP FOR SOUTH DAKOTA
NATIONAL WEATHER SERVICE SIOUX FALLS SD
200 AM CST SAT FEB 28 2015

NOTE: "FAIR" INDICATES FEW OR NO CLOUDS BELOW 12,000 FEET WITH NO
SIGNIFICANT WEATHER AND/OR OBSTRUCTIONS TO VISIBILITY.


SDZ001>005-009-010-012>017-280900-
NORTHWEST AND NORTH CENTRAL SOUTH DAKOTA

CITY           SKY/WX    TMP DP  RH WIND       PRES   REMARKS
BUFFALO          N/A      8   3  80 SW3       29.92R
FAITH            N/A     12   5  73 S14       30.03F WCI  -3
MOBRIDGE       PTCLDY    11   1  64 SE13      30.12F WCI  -4
$$

SDZ012>016-024>037-041>051-057-063-072>074-280900-
SOUTHWEST AND SOUTH CENTRAL SOUTH DAKOTA

CITY           SKY/WX    TMP DP  RH WIND       PRES   REMARKS
RAPID CTY ARPT CLEAR      9   5  84 SE3       30.00F
PIERRE         CLEAR     11   1  64 SE10      30.18F WCI  -3
CUSTER         CLEAR      2  -3  80 W3        29.86S
ELLSWORTH AFB  CLEAR     11   6  77 S5        29.98S WCI   3
PHILIP         CLEAR     13   4  67 SE3       30.11S
PINE RIDGE     CLEAR     15   5  64 S17       30.03F WCI  -1
WINNER         FAIR      14  -1  51 S14       30.21S WCI  -1
$$

SDZ004>011-016>023-039-040-280900-
NORTHEAST SOUTH DAKOTA

CITY           SKY/WX    TMP DP  RH WIND       PRES   REMARKS
ABERDEEN       CLEAR      9   0  67 S15       30.28F WCI  -8
WATERTOWN      CLEAR     -1  -6  79 S12       30.31F WCI -18
SISSETON         N/A      9   0  67 S14       30.33F WCI  -7
$$

SDZ017-020-022-023-036>040-048>070-280900-
SOUTHEAST SOUTH DAKOTA

CITY           SKY/WX    TMP DP  RH WIND       PRES   REMARKS
SIOUX FALLS    CLEAR      5  -2  72 S9        30.40F WCI  -9
HURON          CLEAR      7   0  73 S12       30.32F WCI  -8
CHAMBERLAIN    CLEAR     11  -1  59 S13       30.26S WCI  -4
MITCHELL       CLEAR      9   2  73 S14       30.35F WCI  -7
YANKTON        CLEAR      7   0  72 S6        30.42S WCI  -3
$$

ABBREVIATIONS USED IN REMARKS
   TC - TEMPERATURE IN CELSIUS
  WCI - WIND CHILL INDEX
   HX - HEAT INDEX
  VSB - VISIBILITY




USA.gov is the U.S. government's official web portal to all federal, state and local government web resources and services.